Location: Ferchesar
(52.6477°N, 12.4298°E)
Time: 05:18:56
(UTC+02:00)

Transit 4A - Pass Details

Date: 01 March 2021
Orbit: 869 x 976 km, 66.8° (Epoch: 12 April)

Event Time Altitude Azimuth Distance (km) Brightness Sun altitude
Rises 10:06:50 0° 177° (S) 3,659 11.9 23.3°
Reaches altitude 10° 10:09:45 10° 166° (SSE) 2,711 11.8 23.6°
Maximum altitude 10:14:57 28° 110° (ESE) 1,743 10.6 24.1°
Drops below altitude 10° 10:20:07 10° 55° (NE) 2,686 10.4 24.5°
Sets 10:22:59 0° 44° (NE) 3,619 10.9 24.8°
